590  
NZUS01 KABQ 222010  
RWRABQ  
NEW MEXICO REGIONAL WEATHER ROUNDUP  
NATIONAL WEATHER SERVICE ALBUQUERQUE NM  
100 PM MST WED NOV 22 2017  
 
-----NORTHERN NEW MEXICO AND NEARBY AREAS-----  
 
 
CITY SKY/WX TMP DP RH WIND PRES REMARKS
 
ALBUQUERQUE PTSUNNY 56 28 34 CALM 30.36F  
BELEN FAIR 58 26 28 CALM 30.35F  
SOCORRO FAIR 59 24 25 CALM 30.34F  
 
CITY SKY/WX TMP DP RH WIND PRES REMARKS
 
SANTA FE SUNNY 59 26 28 NW13G18 30.34F  
LOS ALAMOS SUNNY 55 25 31 E3 30.39F  
TAOS SUNNY 59 25 27 N13G18 30.39F  
ANGEL FIRE FAIR 55 23 28 SW3 30.39F  
FARMINGTON SUNNY 54 28 36 W6 30.35F  
GRANTS SUNNY 64 26 24 N7 30.38F  
GALLUP SUNNY 62 25 24 CALM 30.40F  
FLAGSTAFF SUNNY 63 29 27 E8G21 30.43F  
DURANGO SUNNY 55 23 28 VRB5 30.37F  
 
CITY SKY/WX TMP DP RH WIND PRES REMARKS
 
ALAMOSA CLOUDY 55 25 31 VRB3 30.39F  
DENVER PTSUNNY 68 32 26 W7 30.21F  
CLAYTON SUNNY 67 24 19 NE12 30.23F  
RATON CLOUDY 57 25 29 SW7 30.29F  
LAS VEGAS CLOUDY 63 14 15 VRB3 30.32F  
CLINES CORNERS SUNNY 57 25 29 W13G22 30.36F  
SANTA ROSA FAIR 59 28 30 CALM 30.26F  
TUCUMCARI CLOUDY 62 29 28 SW8 30.23F  
CLOVIS (AFB) CLOUDY 60 27 29 SW14G22 30.28F  
CLOVIS CLOUDY 60 29 30 W14G20 30.28F  
AMARILLO CLOUDY 59 27 29 SW17G23 30.26F  
 
-----SOUTHERN NEW MEXICO AND NEARBY AREAS-----  
 
 
CITY SKY/WX TMP DP RH WIND PRES REMARKS
 
T OR C SUNNY 63 24 22 S8 30.32F  
DEMING SUNNY 64 23 21 SW6 30.32F  
TUCSON SUNNY 84 16 8 E13 30.17F  
EL PASO MOSUNNY 65 25 22 E3 30.31F  
LAS CRUCES MOSUNNY 63 22 20 SW6 30.34F  
 
CITY SKY/WX TMP DP RH WIND PRES REMARKS
 
ALAMOGORDO SUNNY 67 28 23 CALM 30.34F  
RUIDOSO SUNNY 57 23 26 NW17G25 30.37F  
ROSWELL SUNNY 60 28 29 S13G21 30.28F  
CARLSBAD SUNNY 60 30 32 S17G23 30.28F  
HOBBS SUNNY 57 27 30 S12 30.31F  
 
CLICK HERE TO GO TO PREVIOUS BULLETINS.

The Nexlab NM Page Main Text Page